Brownwood, TX

5:12 AM CDT on April 25, 2017 (GMT -0500)
Brownwood Regional

Weather History for KBWD - December, 2013

Change the Weather History Date:

Thursday, December 19, 2013

  Actual Average (KABI) Record (KABI)
Temperature  
Mean Temperature 60 °F -  
Max Temperature 69 °F 54 °F 80 °F (1978)
Min Temperature 50 °F 30 °F 5 °F (1924)
Degree Days  
Heating Degree Days 6    
Growing Degree Days 10 (Base 50)    
Moisture  
Dew Point 52 °F    
Average Humidity 79    
Maximum Humidity 100    
Minimum Humidity 56    
Precipitation  
Precipitation 0.00 in - - ()
Sea Level Pressure  
Sea Level Pressure 29.85 in    
Wind  
Wind Speed 10 mph (SSE)    
Max Wind Speed 23 mph    
Max Gust Speed 29 mph    
Visibility 10 miles    
Events      
Averages and records for this station are not official NWS values.
T = Trace of Precipitation, MM = Missing Value Source: NWS Daily Summary

Daily Weather History Graph

Daily Weather History Graph

Search for Another Location

Airport or City:

Trip Planner

Search our weather history database for the weather conditions in past years. The results will help you decide how hot, cold, wet, or windy it might be!

Date:

Astronomy

Dec. 19, 2013 Rise Set
Actual Time 7:30 AM CST 5:35 PM CST
Civil Twilight 7:03 AM CST 6:02 PM CST
Nautical Twilight 6:33 AM CST 6:32 PM CST
Astronomical Twilight 6:03 AM CST 7:02 PM CST
Moon 7:55 PM CST (12/19) 8:57 AM CST (12/19)
Length of Visible Light 10h 58m
Length of Day
10h 04m
Waning Gibbous, 95% of the Moon is Illuminated
Dec 19
Waning Gibbous
Dec 25
Last Quarter
Jan 1
New
Jan 7
First Quarter
Jan 15
Full

Hourly Weather History & Observations

Time (CST) Temp. Dew Point Humidity Pressure Visibility Wind Dir Wind Speed Gust Speed Precip Events Conditions
12:15 AM 51.8 °F 46.4 °F 82% 29.98 in 10.0 mi SSE 8.1 mph - N/A   Unknown
12:35 AM 51.8 °F 46.4 °F 82% 29.98 in 10.0 mi SSE 8.1 mph - N/A   Unknown
12:55 AM 50.0 °F 46.4 °F 87% 29.97 in 10.0 mi SE 9.2 mph - N/A   Unknown
1:15 AM 50.0 °F 46.4 °F 87% 29.97 in 10.0 mi SSE 6.9 mph - N/A   Unknown
1:35 AM 50.0 °F 46.4 °F 87% 29.96 in 10.0 mi SSE 9.2 mph - N/A   Unknown
1:55 AM 50.0 °F 46.4 °F 87% 29.95 in 10.0 mi SSE 8.1 mph - N/A   Unknown
2:15 AM 50.0 °F 46.4 °F 87% 29.96 in 10.0 mi SSE 5.8 mph - N/A   Unknown
2:35 AM 50.0 °F 46.4 °F 87% 29.95 in 10.0 mi SSE 5.8 mph - N/A   Unknown
2:55 AM 50.0 °F 46.4 °F 87% 29.94 in 10.0 mi SSE 4.6 mph - N/A   Unknown
3:15 AM 50.0 °F 48.2 °F 94% 29.94 in 10.0 mi South 5.8 mph - N/A   Unknown
3:35 AM 50.0 °F 48.2 °F 94% 29.93 in 10.0 mi SSE 6.9 mph - N/A   Unknown
3:55 AM 51.8 °F 50.0 °F 94% 29.92 in 10.0 mi SSE 8.1 mph - N/A   Unknown
4:15 AM 51.8 °F 50.0 °F 94% 29.92 in 10.0 mi SSE 6.9 mph - N/A   Unknown
4:35 AM 53.6 °F 50.0 °F 88% 29.91 in 10.0 mi SSE 5.8 mph - N/A   Unknown
4:55 AM 53.6 °F 50.0 °F 88% 29.90 in 10.0 mi SSE 9.2 mph - N/A   Unknown
5:15 AM 53.6 °F 51.8 °F 94% 29.89 in 10.0 mi SSE 8.1 mph - N/A   Unknown
5:35 AM 55.4 °F 51.8 °F 88% 29.88 in 10.0 mi SSE 8.1 mph - N/A   Unknown
5:55 AM 55.4 °F 51.8 °F 88% 29.88 in 10.0 mi South 6.9 mph - N/A   Unknown
6:15 AM 55.4 °F 51.8 °F 88% 29.88 in 10.0 mi South 5.8 mph - N/A   Unknown
6:35 AM 55.4 °F 53.6 °F 94% 29.88 in 10.0 mi South 6.9 mph - N/A   Unknown
6:55 AM 55.4 °F 53.6 °F 94% 29.89 in 10.0 mi South 8.1 mph - N/A   Unknown
7:15 AM 57.2 °F 53.6 °F 88% 29.89 in 10.0 mi South 10.4 mph - N/A   Unknown
7:35 AM 57.2 °F 53.6 °F 88% 29.89 in 10.0 mi South 11.5 mph 17.3 mph N/A   Unknown
7:55 AM 57.2 °F 53.6 °F 88% 29.89 in 10.0 mi South 12.7 mph - N/A   Unknown
8:15 AM 59.0 °F 53.6 °F 82% 29.89 in 10.0 mi South 13.8 mph - N/A   Unknown
8:35 AM 59.0 °F 53.6 °F 82% 29.89 in 10.0 mi South 11.5 mph 19.6 mph N/A   Unknown
8:55 AM 59.0 °F 53.6 °F 82% 29.90 in 10.0 mi South 12.7 mph 17.3 mph N/A   Unknown
9:15 AM 60.8 °F 53.6 °F 77% 29.90 in 10.0 mi South 13.8 mph 18.4 mph N/A   Unknown
9:35 AM 62.6 °F 53.6 °F 72% 29.90 in 10.0 mi South 15.0 mph 23.0 mph N/A   Unknown
9:55 AM 62.6 °F 53.6 °F 72% 29.90 in 10.0 mi South 15.0 mph 25.3 mph N/A   Unknown
10:15 AM 62.6 °F 53.6 °F 72% 29.90 in 10.0 mi South 20.7 mph 25.3 mph N/A   Unknown
10:35 AM 64.4 °F 53.6 °F 68% 29.90 in 10.0 mi South 20.7 mph 28.8 mph N/A   Unknown
10:55 AM 66.2 °F 53.6 °F 64% 29.89 in 10.0 mi South 20.7 mph 28.8 mph N/A   Unknown
11:15 AM 66.2 °F 53.6 °F 64% 29.89 in 10.0 mi SSW 19.6 mph 28.8 mph N/A   Unknown
11:35 AM 66.2 °F 53.6 °F 64% 29.88 in 10.0 mi South 23.0 mph 28.8 mph N/A   Unknown
11:55 AM 66.2 °F 53.6 °F 64% 29.87 in 10.0 mi South 17.3 mph 25.3 mph N/A   Unknown
12:15 PM 68.0 °F 53.6 °F 60% 29.85 in 10.0 mi South 17.3 mph 25.3 mph N/A   Unknown
12:35 PM 68.0 °F 53.6 °F 60% 29.83 in 10.0 mi South 18.4 mph 25.3 mph N/A   Unknown
12:55 PM 69.8 °F 53.6 °F 56% 29.82 in 10.0 mi South 16.1 mph 26.5 mph N/A   Unknown
1:15 PM 69.8 °F 53.6 °F 56% 29.81 in 10.0 mi South 18.4 mph 26.5 mph N/A   Unknown
1:35 PM 69.8 °F 53.6 °F 56% 29.80 in 10.0 mi South 17.3 mph 27.6 mph N/A   Unknown
1:55 PM 68.0 °F 55.4 °F 64% 29.79 in 4.0 mi South 19.6 mph 26.5 mph N/A   Haze
2:15 PM 68.0 °F 53.6 °F 60% 29.79 in 7.0 mi South 13.8 mph 23.0 mph N/A   Unknown
2:35 PM 68.0 °F 53.6 °F 60% 29.79 in 10.0 mi South 15.0 mph 20.7 mph N/A   Unknown
2:55 PM 68.0 °F 53.6 °F 60% 29.79 in 10.0 mi South 17.3 mph 20.7 mph N/A   Unknown
3:15 PM 68.0 °F 53.6 °F 60% 29.78 in 10.0 mi South 15.0 mph 21.9 mph N/A   Unknown
3:35 PM 66.2 °F 53.6 °F 64% 29.78 in 10.0 mi South 15.0 mph 23.0 mph N/A   Unknown
3:55 PM 66.2 °F 53.6 °F 64% 29.78 in 10.0 mi South 18.4 mph 21.9 mph N/A   Unknown
4:15 PM 66.2 °F 53.6 °F 64% 29.78 in 10.0 mi South 13.8 mph - N/A   Unknown
4:35 PM 66.2 °F 53.6 °F 64% 29.78 in 10.0 mi South 12.7 mph - N/A   Unknown
4:55 PM 66.2 °F 53.6 °F 64% 29.78 in 10.0 mi South 13.8 mph 20.7 mph N/A   Unknown
5:15 PM 64.4 °F 53.6 °F 68% 29.78 in 10.0 mi South 15.0 mph 20.7 mph N/A   Unknown
5:35 PM 64.4 °F 53.6 °F 68% 29.78 in 10.0 mi South 13.8 mph - N/A   Unknown
5:55 PM 62.6 °F 53.6 °F 72% 29.78 in 10.0 mi SSE 8.1 mph - N/A   Unknown
6:15 PM 62.6 °F 53.6 °F 72% 29.79 in 10.0 mi South 12.7 mph - N/A   Unknown
6:35 PM 60.8 °F 53.6 °F 77% 29.79 in 10.0 mi South 11.5 mph - N/A   Unknown
6:55 PM 60.8 °F 53.6 °F 77% 29.79 in 10.0 mi South 10.4 mph - N/A   Unknown
7:15 PM 59.0 °F 53.6 °F 82% 29.79 in 10.0 mi South 5.8 mph - N/A   Unknown
7:35 PM 59.0 °F 53.6 °F 82% 29.80 in 10.0 mi SSE 8.1 mph - N/A   Unknown
7:55 PM 59.0 °F 53.6 °F 82% 29.80 in 10.0 mi SSE 8.1 mph - N/A   Unknown
8:15 PM 59.0 °F 53.6 °F 82% 29.80 in 10.0 mi SSE 8.1 mph - N/A   Unknown
8:35 PM 59.0 °F 53.6 °F 82% 29.80 in 10.0 mi SSE 6.9 mph - N/A   Unknown
8:55 PM 57.2 °F 53.6 °F 88% 29.80 in 10.0 mi SSE 5.8 mph - N/A   Unknown
9:15 PM 57.2 °F 53.6 °F 88% 29.80 in 10.0 mi SE 5.8 mph - N/A   Unknown
9:35 PM 55.4 °F 53.6 °F 94% 29.80 in 10.0 mi SSE 5.8 mph - N/A   Unknown
9:55 PM 53.6 °F 51.8 °F 94% 29.80 in 10.0 mi SE 4.6 mph - N/A   Unknown
10:15 PM 53.6 °F 51.8 °F 94% 29.80 in 10.0 mi SE 5.8 mph - N/A   Unknown
10:35 PM 50.0 °F 50.0 °F 100% 29.79 in 10.0 mi SE 6.9 mph - N/A   Unknown
10:55 PM 51.8 °F 50.0 °F 94% 29.79 in 10.0 mi SE 5.8 mph - N/A   Unknown
11:15 PM 53.6 °F 51.8 °F 94% 29.79 in 10.0 mi South 5.8 mph - N/A   Unknown
11:35 PM 53.6 °F 51.8 °F 94% 29.78 in 10.0 mi South 5.8 mph - N/A   Unknown
11:55 PM 53.6 °F 51.8 °F 94% 29.77 in 10.0 mi South 4.6 mph - N/A   Unknown